Weather History for KTWM - February, 2013

Change the Weather History Date:

Wednesday, February 6, 2013

  Actual Average Record
Temperature  
Mean Temperature 14 °F -  
Max Temperature 21 °F 24 °F 47 °F (1987)
Min Temperature 6 °F 5 °F -25 °F (1975)
Degree Days  
Heating Degree Days 52    
Moisture  
Dew Point 6 °F    
Average Humidity 71    
Maximum Humidity 86    
Minimum Humidity 57    
Precipitation  
Precipitation 0.02 in - - ()
Sea Level Pressure  
Sea Level Pressure 30.03 in    
Wind  
Wind Speed 2 mph (ENE)    
Max Wind Speed 10 mph    
Max Gust Speed 16 mph    
Visibility 7 miles    
Events Snow    
Averages and records for this station are not official NWS values.
T = Trace of Precipitation, MM = Missing Value Source: NWS Daily Summary

Daily Weather History Graph

Daily Weather History Graph

Search for Another Location

Airport or City:

Trip Planner

Search our weather history database for the weather conditions in past years. The results will help you decide how hot, cold, wet, or windy it might be!

Date:

Astronomy

Feb. 06, 2013 Rise Set
Actual Time 7:24 AM CST 5:17 PM CST
Civil Twilight 6:52 AM CST 5:50 PM CST
Nautical Twilight 6:16 AM CST 6:26 PM CST
Astronomical Twilight 5:41 AM CST 7:01 PM CST
Moon 4:16 AM CST (2/6) 1:29 PM CST (2/6)
Length of Visible Light 10h 57m
Length of Day
9h 53m
Waning Crescent, 17% of the Moon is Illuminated
Feb 6
Waning Crescent
Feb 10
New
Feb 17
First Quarter
Feb 25
Full
Mar 4
Last Quarter

Hourly Weather History & Observations

Time (CST) Temp. Windchill Dew Point Humidity Pressure Visibility Wind Dir Wind Speed Gust Speed Precip Events Conditions
12:11 AM 8.6 °F - -2.2 °F 62% 30.01 in 10.0 mi Calm Calm - N/A   Overcast
12:31 AM 8.6 °F - -2.2 °F 62% 30.02 in 10.0 mi Calm Calm - N/A   Overcast
12:51 AM 8.6 °F - -2.2 °F 62% 30.01 in 10.0 mi Calm Calm - N/A   Overcast
1:11 AM 8.6 °F - -2.2 °F 62% 30.01 in 10.0 mi Calm Calm - N/A   Overcast
1:31 AM 8.6 °F 2.0 °F -4.0 °F 57% 30.02 in 10.0 mi ENE 3.5 mph - N/A   Overcast
1:51 AM 8.6 °F - -4.0 °F 57% 30.02 in 10.0 mi Calm Calm - N/A   Overcast
2:11 AM 8.6 °F - -4.0 °F 57% 30.02 in 10.0 mi Calm Calm - N/A   Overcast
2:31 AM 8.6 °F - -4.0 °F 57% 30.02 in 10.0 mi Calm Calm - N/A   Overcast
2:51 AM 8.6 °F - -4.0 °F 57% 30.02 in 10.0 mi Calm Calm - N/A   Overcast
3:11 AM 6.8 °F - -2.2 °F 67% 30.02 in 10.0 mi Calm Calm - N/A   Overcast
3:31 AM 8.6 °F - -2.2 °F 62% 30.01 in 10.0 mi Calm Calm - N/A   Overcast
3:51 AM 8.6 °F - -2.2 °F 62% 30.01 in 10.0 mi Calm Calm - N/A   Overcast
4:11 AM 8.6 °F - -2.2 °F 62% 30.02 in 10.0 mi Calm Calm - N/A   Overcast
4:31 AM 8.6 °F - -2.2 °F 62% 30.02 in 10.0 mi Calm Calm - N/A   Overcast
4:52 AM 8.6 °F - -2.2 °F 62% 30.02 in 10.0 mi Calm Calm - N/A   Overcast
5:11 AM 8.6 °F 2.0 °F -2.2 °F 62% 30.02 in 10.0 mi NNW 3.5 mph - N/A   Overcast
5:31 AM 8.6 °F 2.0 °F -2.2 °F 62% 30.02 in 10.0 mi NNW 3.5 mph - N/A   Overcast
5:52 AM 8.6 °F - -2.2 °F 62% 30.02 in 10.0 mi Calm Calm - N/A   Overcast
6:11 AM 8.6 °F - -2.2 °F 62% 30.02 in 10.0 mi Calm Calm - N/A   Overcast
6:31 AM 6.8 °F - -2.2 °F 67% 30.02 in 10.0 mi Calm Calm - N/A   Overcast
7:11 AM 6.8 °F - -0.4 °F 72% 30.03 in 10.0 mi Calm Calm - N/A   Overcast
7:31 AM 6.8 °F - -0.4 °F 72% 30.03 in 10.0 mi Calm Calm - N/A   Overcast
7:52 AM 8.6 °F - -0.4 °F 67% 30.04 in 10.0 mi Calm Calm - N/A   Overcast
8:11 AM 8.6 °F - -0.4 °F 67% 30.05 in 10.0 mi Calm Calm - N/A   Overcast
8:31 AM 8.6 °F - -0.4 °F 67% 30.05 in 10.0 mi Calm Calm - N/A   Overcast
8:51 AM 10.4 °F - 1.4 °F 67% 30.04 in 10.0 mi Calm Calm - N/A   Overcast
9:11 AM 10.4 °F - 1.4 °F 67% 30.04 in 10.0 mi Calm Calm - N/A   Overcast
9:31 AM 12.2 °F - 3.2 °F 67% 30.04 in 10.0 mi Calm Calm - N/A   Mostly Cloudy
9:51 AM 14.0 °F - 3.2 °F 62% 30.04 in 10.0 mi Calm Calm - N/A   Overcast
10:11 AM 14.0 °F - 3.2 °F 62% 30.05 in 10.0 mi Calm Calm - N/A   Overcast
10:31 AM 15.8 °F 10.2 °F 5.0 °F 62% 30.05 in 10.0 mi ENE 3.5 mph - N/A   Overcast
10:52 AM 15.8 °F - 6.8 °F 68% 30.05 in 1.2 mi Calm Calm - N/A Snow Light Snow
11:11 AM 15.8 °F - 8.6 °F 73% 30.06 in 1.0 mi Calm Calm - N/A Snow Light Snow
11:31 AM 15.8 °F - 10.4 °F 79% 30.05 in 1.0 mi Calm Calm - N/A Snow Light Snow
11:51 AM 15.8 °F 10.2 °F 10.4 °F 79% 30.05 in 1.0 mi SE 3.5 mph - N/A Snow Light Snow
12:11 PM 17.6 °F 12.3 °F 10.4 °F 73% 30.04 in 1.2 mi East 3.5 mph - N/A Snow Light Snow
12:32 PM 17.6 °F 12.3 °F 10.4 °F 73% 30.05 in 1.0 mi East 3.5 mph - N/A Snow Light Snow
12:51 PM 17.6 °F - 10.4 °F 73% 30.04 in 1.0 mi Calm Calm - N/A Snow Light Snow
1:11 PM 17.6 °F 12.3 °F 10.4 °F 73% 30.04 in 1.0 mi SE 3.5 mph - N/A Snow Light Snow
1:32 PM 17.6 °F 10.7 °F 10.4 °F 73% 30.03 in 1.8 mi SE 4.6 mph - N/A Snow Light Snow
1:51 PM 17.6 °F 10.7 °F 10.4 °F 73% 30.02 in 0.8 mi ESE 4.6 mph - N/A Snow Light Snow
2:11 PM 17.6 °F 12.3 °F 10.4 °F 73% 30.02 in 1.0 mi East 3.5 mph - N/A Snow Light Snow
2:32 PM 17.6 °F 9.3 °F 12.2 °F 79% 30.02 in 1.2 mi East 5.8 mph - N/A Snow Light Snow
2:51 PM 17.6 °F 6.4 °F 12.2 °F 79% 30.00 in 1.0 mi East 9.2 mph - N/A Snow Light Snow
3:11 PM 17.6 °F 9.3 °F 12.2 °F 79% 30.01 in 1.5 mi East 5.8 mph - N/A Snow Light Snow
3:31 PM 17.6 °F 6.4 °F 12.2 °F 79% 30.01 in 1.2 mi East 9.2 mph - N/A Snow Light Snow
3:51 PM 17.6 °F 6.4 °F 12.2 °F 79% 30.01 in 1.5 mi ENE 9.2 mph - N/A Snow Light Snow
4:12 PM 17.6 °F 7.3 °F 12.2 °F 79% 30.00 in 5.0 mi ENE 8.1 mph - N/A Snow Light Snow
4:31 PM 17.6 °F 7.3 °F 12.2 °F 79% 30.00 in 5.0 mi ENE 8.1 mph - N/A   Haze
4:51 PM 17.6 °F 6.4 °F 12.2 °F 79% 30.01 in 7.0 mi ENE 9.2 mph - N/A Snow Light Snow
5:12 PM 17.6 °F 6.4 °F 12.2 °F 79% 29.99 in 7.0 mi East 9.2 mph - N/A Snow Light Snow
5:31 PM 17.6 °F 7.3 °F 12.2 °F 79% 30.01 in 10.0 mi NE 8.1 mph - N/A Snow Light Snow
5:51 PM 17.6 °F 9.3 °F 12.2 °F 79% 30.02 in 5.0 mi NE 5.8 mph - N/A Snow Light Snow
6:12 PM 17.6 °F 7.3 °F 12.2 °F 79% 30.02 in 5.0 mi NE 8.1 mph - N/A Snow Light Snow
6:31 PM 17.6 °F 9.3 °F 12.2 °F 79% 30.02 in 7.0 mi NE 5.8 mph - N/A Snow Light Snow
6:52 PM 17.6 °F 10.7 °F 12.2 °F 79% 30.02 in 7.0 mi ENE 4.6 mph - N/A Snow Light Snow
7:11 PM 19.4 °F 8.6 °F 14.0 °F 80% 30.03 in 5.0 mi ENE 9.2 mph - 0.01 in Snow Light Snow
7:32 PM 19.4 °F 10.4 °F 14.0 °F 80% 30.04 in 5.0 mi ENE 6.9 mph - 0.01 in Snow Light Snow
7:51 PM 19.4 °F 9.5 °F 14.0 °F 80% 30.04 in 5.0 mi ENE 8.1 mph - 0.01 in Snow Light Snow
8:11 PM 19.4 °F 8.6 °F 14.0 °F 80% 30.04 in 3.0 mi ENE 9.2 mph - N/A Snow Light Snow
8:32 PM 19.4 °F 7.9 °F 15.8 °F 86% 30.04 in 2.0 mi East 10.4 mph - 0.01 in Snow Light Snow
8:51 PM 19.4 °F 7.9 °F 15.8 °F 86% 30.04 in 3.0 mi ENE 10.4 mph - 0.01 in Snow Light Snow
9:11 PM 19.4 °F 9.5 °F 15.8 °F 86% 30.04 in 3.0 mi East 8.1 mph - N/A Snow Light Snow
9:32 PM 21.2 °F 10.1 °F 15.8 °F 80% 30.05 in 5.0 mi ENE 10.4 mph - N/A Snow Light Snow
10:11 PM 21.2 °F 11.7 °F 15.8 °F 80% 30.05 in 10.0 mi ENE 8.1 mph - N/A   Overcast
10:31 PM 21.2 °F 10.9 °F 15.8 °F 80% 30.05 in 10.0 mi ENE 9.2 mph 16.1 mph N/A   Overcast
11:12 PM 21.2 °F 10.9 °F 15.8 °F 80% 30.06 in 10.0 mi NE 9.2 mph - N/A   Overcast
11:31 PM 21.2 °F 12.6 °F 15.8 °F 80% 30.06 in 10.0 mi NE 6.9 mph - N/A   Overcast